Total_Precipitation_Accumulation
1.82 2.00 1.98 1.97 2.07 2.14 2.01 1.80 1.72 1.71 1.74 1.81 2.01 2.08 2.04 2.07 2.17 2.22 2.20 2.50 2.61 2.58 2.55 2.55 2.54 2.62 2.60 2.51 2.60 2.77 3.01 3.05 2.73 2.27 2.16 2.12 2.08 1.96 1.92 1.78 1.65 1.57 1.37
1.71 1.91 1.98 1.99 2.03 2.03 1.91 1.73 1.67 1.69 1.77 1.84 1.97 1.99 1.91 1.91 2.09 2.13 2.20 2.45 2.58 2.48 2.46 2.45 2.27 2.30 2.34 2.22 2.32 2.41 2.54 2.74 2.71 2.44 2.41 2.38 2.31 2.18 2.13 2.06 1.86 1.61 1.34
1.61 1.95 2.11 2.11 2.05 1.97 1.80 1.59 1.55 1.60 1.72 1.79 1.79 1.81 1.86 1.96 2.05 2.07 2.08 2.10 2.12 2.21 2.42 2.51 2.31 2.28 2.17 2.15 2.16 2.13 2.20 2.32 2.50 2.43 2.37 2.42 2.35 2.32 2.23 2.03 1.88 1.72 1.41
1.51 1.71 1.81 1.73 1.68 1.69 1.61 1.52 1.47 1.52 1.60 1.68 1.75 1.83 1.89 1.93 1.96 2.03 2.06 2.02 2.01 2.06 2.19 2.25 2.22 2.17 2.10 2.17 2.08 2.04 2.10 2.23 2.35 2.36 2.30 2.41 2.41 2.33 2.32 2.13 2.13 2.00 1.83
1.20 1.32 1.46 1.47 1.45 1.43 1.49 1.54 1.57 1.66 1.65 1.72 1.78 1.80 1.80 1.79 1.69 1.71 1.78 1.81 1.95 1.91 1.82 1.83 1.84 1.88 1.88 1.89 1.76 1.88 2.06 2.15 2.19 2.22 2.22 2.37 2.55 2.57 2.39 2.30 2.36 2.34 2.18
1.07 1.18 1.38 1.51 1.54 1.54 1.58 1.67 1.72 1.72 1.72 1.75 1.72 1.76 1.75 1.51 1.64 1.63 1.63 1.77 1.87 1.85 1.75 1.65 1.57 1.56 1.51 1.50 1.48 1.55 1.79 1.96 2.03 2.13 2.14 2.27 2.48 2.67 2.73 2.67 2.54 2.46 2.45
1.21 1.35 1.52 1.62 1.71 1.73 1.69 1.79 1.76 1.77 1.81 1.78 1.70 1.69 1.73 1.77 1.78 1.62 1.48 1.48 1.61 1.65 1.61 1.59 1.43 1.34 1.47 1.43 1.46 1.45 1.47 1.60 1.73 1.91 2.00 1.99 2.15 2.39 2.61 2.57 2.65 2.67 2.64
1.46 1.65 1.74 1.85 1.81 1.79 1.78 1.81 1.88 1.96 1.98 1.94 1.88 1.80 1.81 1.79 1.73 1.52 1.51 1.46 1.51 1.53 1.56 1.60 1.59 1.50 1.52 1.62 1.60 1.53 1.42 1.38 1.46 1.54 1.65 1.78 1.98 2.24 2.47 2.45 2.48 2.55 2.58
1.56 1.69 1.85 1.95 1.99 2.01 2.03 1.98 2.03 2.11 2.07 1.99 1.96 2.00 1.95 1.97 2.00 1.80 1.78 1.65 1.69 1.72 1.75 1.75 1.71 1.61 1.70 1.63 1.56 1.55 1.49 1.46 1.51 1.57 1.54 1.66 1.90 2.01 2.13 2.19 2.17 2.22 2.16
1.60 1.72 1.90 2.12 2.18 2.21 2.34 2.41 2.33 2.29 2.15 2.16 2.16 2.14 2.16 2.20 2.41 2.20 2.01 1.86 1.90 1.91 2.00 1.98 1.99 1.79 1.75 1.64 1.52 1.53 1.53 1.54 1.59 1.55 1.51 1.49 1.53 1.71 1.88 1.89 2.04 2.18 2.06
1.64 1.77 1.97 2.16 2.24 2.32 2.47 2.54 2.49 2.44 2.41 2.36 2.28 2.31 2.30 2.31 2.47 2.24 2.04 1.92 2.00 2.13 2.12 2.02 2.06 2.01 1.78 1.74 1.65 1.60 1.59 1.56 1.56 1.57 1.55 1.52 1.56 1.64 1.72 1.81 2.03 2.19 2.19
1.56 1.68 1.81 1.98 2.03 2.11 2.37 2.45 2.51 2.53 2.48 2.39 2.32 2.20 2.22 2.21 2.17 2.06 1.96 1.91 1.99 2.10 2.16 2.07 2.03 1.97 1.70 1.59 1.46 1.44 1.45 1.35 1.31 1.43 1.45 1.47 1.50 1.50 1.55 1.73 1.92 2.00 2.02
1.62 1.75 1.89 1.96 2.03 2.14 2.24 2.26 2.33 2.41 2.36 2.25 2.23 2.17 2.14 2.15 2.13 1.90 1.68 1.66 1.69 1.72 1.87 1.96 1.87 1.75 1.52 1.31 1.26 1.23 1.14 1.02 1.06 1.16 1.18 1.18 1.20 1.26 1.37 1.54 1.73 1.82 1.81
1.70 1.75 1.83 1.94 1.94 1.98 2.11 2.21 2.31 2.42 2.48 2.38 2.27 2.18 2.16 2.10 1.97 1.78 1.58 1.50 1.59 1.69 1.77 1.81 1.68 1.56 1.37 1.23 1.14 1.04 0.98 1.02 1.06 1.08 1.11 1.17 1.23 1.28 1.31 1.36 1.46 1.57 1.61
1.59 1.64 1.68 1.71 1.79 1.88 1.93 2.01 2.03 2.13 2.14 2.12 2.07 2.05 2.04 1.98 1.80 1.71 1.56 1.44 1.52 1.65 1.73 1.76 1.64 1.59 1.50 1.37 1.26 1.19 1.16 1.16 1.11 1.09 1.14 1.15 1.17 1.23 1.25 1.27 1.38 1.38 1.34
1.65 1.67 1.60 1.56 1.62 1.67 1.71 1.71 1.71 1.67 1.68 1.64 1.65 1.65 1.61 1.54 1.42 1.28 1.25 1.25 1.30 1.44 1.49 1.62 1.68 1.65 1.59 1.49 1.35 1.23 1.18 1.15 1.10 1.11 1.15 1.17 1.16 1.18 1.24 1.23 1.29 1.31 1.24
1.55 1.61 1.60 1.57 1.61 1.60 1.60 1.62 1.65 1.60 1.51 1.45 1.43 1.43 1.47 1.43 1.36 1.31 1.32 1.34 1.29 1.32 1.33 1.46 1.53 1.49 1.46 1.40 1.28 1.16 1.11 1.13 1.21 1.22 1.23 1.22 1.27 1.29 1.33 1.31 1.28 1.32 1.27
1.33 1.42 1.53 1.63 1.66 1.69 1.71 1.75 1.80 1.85 1.78 1.60 1.46 1.38 1.31 1.28 1.22 1.24 1.28 1.23 1.16 1.16 1.24 1.36 1.37 1.30 1.26 1.23 1.20 1.14 1.14 1.22 1.32 1.30 1.28 1.29 1.30 1.30 1.33 1.34 1.30 1.28 1.27
1.27 1.32 1.34 1.40 1.49 1.56 1.57 1.60 1.68 1.76 1.78 1.66 1.51 1.40 1.30 1.23 1.16 1.13 1.10 1.01 1.04 1.13 1.25 1.29 1.30 1.29 1.19 1.15 1.15 1.12 1.10 1.13 1.23 1.29 1.27 1.30 1.31 1.32 1.31 1.29 1.32 1.33 1.25
1.27 1.31 1.30 1.27 1.27 1.31 1.35 1.42 1.50 1.59 1.64 1.56 1.45 1.33 1.20 1.12 0.99 0.94 0.90 0.88 0.94 1.00 1.08 1.14 1.17 1.14 1.05 1.07 1.09 1.08 1.05 1.10 1.21 1.25 1.23 1.26 1.31 1.30 1.22 1.19 1.20 1.23 1.16
1.29 1.26 1.24 1.23 1.24 1.26 1.30 1.36 1.39 1.43 1.48 1.41 1.28 1.13 1.03 0.93 0.84 0.79 0.78 0.82 0.91 0.99 1.06 1.11 1.11 1.06 1.06 1.10 1.12 1.12 1.09 1.14 1.21 1.22 1.22 1.25 1.29 1.29 1.21 1.16 1.13 1.16 1.18
1.30 1.20 1.13 1.13 1.19 1.24 1.27 1.34 1.37 1.35 1.30 1.22 1.12 0.95 0.91 0.82 0.76 0.76 0.80 0.85 0.90 1.00 1.03 1.04 1.07 1.05 1.01 1.02 1.06 1.11 1.13 1.17 1.25 1.26 1.23 1.24 1.28 1.28 1.28 1.24 1.22 1.20 1.20
1.37 1.24 1.14 1.10 1.10 1.11 1.13 1.19 1.24 1.20 1.12 1.05 0.99 0.94 0.88 0.86 0.76 0.75 0.81 0.89 0.95 0.96 0.92 0.92 0.96 0.99 0.99 1.01 1.02 1.08 1.14 1.18 1.22 1.24 1.30 1.33 1.31 1.28 1.27 1.21 1.20 1.20 1.19
1.38 1.27 1.14 1.04 1.05 1.09 1.12 1.16 1.18 1.14 1.06 0.99 0.96 0.93 0.91 0.91 0.84 0.82 0.86 0.95 0.92 0.85 0.82 0.84 0.87 0.89 0.93 1.00 1.00 1.00 1.05 1.11 1.10 1.09 1.11 1.15 1.17 1.18 1.21 1.19 1.19 1.17 1.19
1.34 1.27 1.15 1.04 1.00 1.02 1.06 1.13 1.14 1.10 1.04 0.95 0.92 0.92 0.95 0.99 0.93 0.88 0.87 0.87 0.82 0.78 0.73 0.77 0.81 0.83 0.86 0.90 0.94 0.95 0.96 0.92 0.91 0.93 0.96 1.01 1.07 1.14 1.20 1.20 1.20 1.20 1.20
1.14 1.07 1.00 0.92 0.86 0.87 0.94 1.02 1.04 1.03 1.01 0.97 0.96 0.95 0.90 0.88 0.83 0.76 0.73 0.73 0.71 0.69 0.69 0.73 0.80 0.82 0.87 0.89 0.81 0.78 0.75 0.69 0.71 0.79 0.79 0.84 0.97 1.06 1.12 1.19 1.19 1.21 1.20